| time (UTC) | temp C | wind direction | speed KPH | gust KPH | rain 1hr cm | rain 24hr cm | rain mn cm | humidity % | barometer mb |
| 20260505022634 | 11 | 65 | 0.0 | 0.0 | 0.00 | 0.05 | 0.05 | 86 | 1011.7 |
| 20260505022131 | 11 | 62 | 0.0 | 0.0 | 0.00 | 0.05 | 0.05 | 85 | 1011.6 |
| 20260505021627 | 11 | 74 | 0.0 | 0.0 | 0.00 | 0.05 | 0.05 | 85 | 1011.5 |
| 20260505021124 | 11 | 65 | 0.0 | 0.0 | 0.00 | 0.05 | 0.05 | 84 | 1011.9 |
| 20260505020614 | 11 | 67 | 0.0 | 0.0 | 0.00 | 0.05 | 0.05 | 83 | 1012.2 |
| 20260505020111 | 11 | 69 | 0.0 | 0.0 | 0.13 | 0.05 | 0.05 | 82 | 1012.0 |
| 20260505015608 | 11 | 71 | 0.0 | 0.0 | 0.30 | 0.05 | 0.05 | 80 | 1012.3 |
| 20260505015105 | 11 | 51 | 1.6 | 1.6 | 0.18 | 0.03 | 0.03 | 76 | 1012.2 |
| 20260505014601 | 12 | 55 | 3.2 | 3.2 | 0.00 | 0.00 | 0.00 | 71 | 1012.0 |
| 20260505014059 | 13 | 58 | 0.0 | 0.0 | 0.00 | 0.00 | 0.00 | 68 | 1011.9 |
| 20260505013556 | 13 | 82 | 0.0 | 0.0 | 0.00 | 0.00 | 0.00 | 63 | 1011.9 |
| 20260505013053 | 13 | 59 | 0.0 | 1.6 | 0.00 | 0.00 | 0.00 | 61 | 1011.9 |
| 20260505012551 | 13 | 0 | 1.6 | 1.6 | 0.00 | 0.00 | 0.00 | 60 | 1011.6 |
| 20260505012048 | 13 | 68 | 6.4 | 9.7 | 0.00 | 0.00 | 0.00 | 60 | 1011.9 |
| 20260505011543 | 13 | 77 | 1.6 | 3.2 | 0.00 | 0.00 | 0.00 | 59 | 1011.6 |
| 20260505011041 | 14 | 27 | 3.2 | 3.2 | 0.00 | 0.00 | 0.00 | 56 | 1011.5 |
| 20260505010536 | 15 | 3 | 4.8 | 9.7 | 0.00 | 0.00 | 0.00 | 54 | 1011.5 |
| 20260505010033 | 15 | 44 | 3.2 | 4.8 | 0.00 | 0.00 | 0.00 | 54 | 1011.3 |
| 20260505005529 | 15 | 57 | 0.0 | 0.0 | 0.00 | 0.00 | 0.00 | 55 | 1011.0 |
| 20260505005027 | 14 | 63 | 0.0 | 1.6 | 0.00 | 0.00 | 0.00 | 56 | 1011.2 |
| 20260505004523 | 14 | 83 | 0.0 | 0.0 | 0.00 | 0.00 | 0.00 | 56 | 1011.3 |
| 20260505004020 | 14 | 65 | 0.0 | 0.0 | 0.00 | 0.00 | 0.00 | 57 | 1011.2 |
| 20260505003517 | 14 | 67 | 0.0 | 0.0 | 0.00 | 0.00 | 0.00 | 56 | 1010.9 |
| 20260505003014 | 14 | 90 | 0.0 | 0.0 | 0.00 | 0.00 | 0.00 | 59 | 1011.3 |
| 20260505002509 | 14 | 104 | 0.0 | 0.0 | 0.00 | 0.00 | 0.00 | 57 | 1011.0 |
| 20260505002008 | 14 | 122 | 3.2 | 4.8 | 0.00 | 0.00 | 0.00 | 55 | 1011.0 |
| 20260505001505 | 14 | 98 | 0.0 | 0.0 | 0.00 | 0.00 | 0.00 | 57 | 1011.0 |
| 20260505001002 | 14 | 110 | 0.0 | 1.6 | 0.00 | 0.00 | 0.00 | 56 | 1011.2 |
| 20260505000500 | 15 | 98 | 3.2 | 3.2 | 0.00 | 0.00 | 0.00 | 55 | 1011.3 |
| 20260504235956 | 15 | 80 | 1.6 | 3.2 | 0.00 | 0.00 | 0.00 | 52 | 1011.2 |
| 20260504235453 | 15 | 111 | 3.2 | 3.2 | 0.00 | 0.00 | 0.00 | 55 | 1011.3 |
| 20260504234950 | 15 | 90 | 0.0 | 0.0 | 0.00 | 0.00 | 0.00 | 53 | 1010.9 |
| 20260504234447 | 15 | 133 | 0.0 | 1.6 | 0.00 | 0.00 | 0.00 | 49 | 1010.8 |
| 20260504233943 | 16 | 136 | 3.2 | 4.8 | 0.00 | 0.00 | 0.00 | 48 | 1010.9 |
| 20260504233439 | 16 | 183 | 6.4 | 9.7 | 0.00 | 0.00 | 0.00 | 47 | 1010.6 |
| 20260504232937 | 18 | 134 | 1.6 | 3.2 | 0.00 | 0.00 | 0.00 | 37 | 1010.4 |
| 20260504232434 | 18 | 92 | 0.0 | 1.6 | 0.00 | 0.00 | 0.00 | 36 | 1010.2 |
| 20260504231931 | 18 | 65 | 1.6 | 3.2 | 0.00 | 0.00 | 0.00 | 35 | 1010.0 |
| 20260504231427 | 18 | 59 | 0.0 | 1.6 | 0.00 | 0.00 | 0.00 | 35 | 1010.0 |
| 20260504230923 | 18 | 64 | 0.0 | 0.0 | 0.00 | 0.00 | 0.00 | 35 | 1009.8 |
| 20260504230420 | 18 | 61 | 0.0 | 0.0 | 0.00 | 0.00 | 0.00 | 35 | 1009.5 |
| 20260504225919 | 18 | 64 | 0.0 | 0.0 | 0.00 | 0.00 | 0.00 | 34 | 1009.4 |
| 20260504225416 | 18 | 79 | 0.0 | 0.0 | 0.00 | 0.00 | 0.00 | 35 | 1009.5 |
| 20260504224913 | 18 | 60 | 1.6 | 1.6 | 0.00 | 0.00 | 0.00 | 35 | 1009.5 |
| 20260504224409 | 19 | 58 | 3.2 | 3.2 | 0.00 | 0.00 | 0.00 | 35 | 1009.8 |
| 20260504223907 | 19 | 17 | 4.8 | 4.8 | 0.00 | 0.00 | 0.00 | 34 | 1009.8 |
| 20260504223402 | 19 | 322 | 6.4 | 9.7 | 0.00 | 0.00 | 0.00 | 35 | 1009.5 |
| 20260504222858 | 19 | 341 | 3.2 | 3.2 | 0.00 | 0.00 | 0.00 | 35 | 1009.8 |
| 20260504222355 | 20 | 70 | 0.0 | 1.6 | 0.00 | 0.00 | 0.00 | 34 | 1009.7 |
| 20260504221854 | 20 | 87 | 0.0 | 0.0 | 0.00 | 0.00 | 0.00 | 34 | 1009.8 |
| 20260504221350 | 20 | 76 | 0.0 | 1.6 | 0.00 | 0.00 | 0.00 | 34 | 1009.8 |
| 20260504220847 | 19 | 10 | 1.6 | 3.2 | 0.00 | 0.00 | 0.00 | 34 | 1009.8 |
| 20260504220344 | 19 | 325 | 4.8 | 6.4 | 0.00 | 0.00 | 0.00 | 34 | 1010.1 |
| 20260504215841 | 19 | 64 | 0.0 | 1.6 | 0.00 | 0.00 | 0.00 | 35 | 1010.0 |
| 20260504215337 | 19 | 50 | 1.6 | 1.6 | 0.00 | 0.00 | 0.00 | 34 | 1010.2 |
| 20260504214834 | 19 | 40 | 4.8 | 6.4 | 0.00 | 0.00 | 0.00 | 34 | 1010.0 |
| 20260504214331 | 19 | 45 | 3.2 | 4.8 | 0.00 | 0.00 | 0.00 | 35 | 1010.1 |
| 20260504213827 | 19 | 54 | 3.2 | 4.8 | 0.00 | 0.00 | 0.00 | 34 | 1010.4 |
| 20260504213323 | 20 | 43 | 1.6 | 1.6 | 0.00 | 0.00 | 0.00 | 34 | 1010.2 |
| 20260504212821 | 20 | 69 | 0.0 | 0.0 | 0.00 | 0.00 | 0.00 | 34 | 1010.4 |
| 20260504212317 | 19 | 341 | 6.4 | 9.7 | 0.00 | 0.00 | 0.00 | 34 | 1010.2 |
| 20260504211815 | 20 | 43 | 3.2 | 4.8 | 0.00 | 0.00 | 0.00 | 34 | 1010.0 |
| 20260504211310 | 20 | 23 | 4.8 | 4.8 | 0.00 | 0.00 | 0.00 | 34 | 1010.1 |
| 20260504210808 | 20 | 36 | 1.6 | 3.2 | 0.00 | 0.00 | 0.00 | 33 | 1010.1 |
| 20260504210305 | 21 | 43 | 6.4 | 9.7 | 0.00 | 0.00 | 0.00 | 32 | 1009.8 |
| 20260504205802 | 21 | 326 | 3.2 | 3.2 | 0.00 | 0.00 | 0.00 | 31 | 1010.1 |
| 20260504205300 | 22 | 327 | 4.8 | 6.4 | 0.00 | 0.00 | 0.00 | 31 | 1009.8 |
| 20260504204758 | 21 | 333 | 9.7 | 16.1 | 0.00 | 0.00 | 0.00 | 32 | 1009.8 |
| 20260504204256 | 21 | 324 | 4.8 | 9.7 | 0.00 | 0.00 | 0.00 | 31 | 1009.5 |
| 20260504203755 | 20 | 59 | 6.4 | 9.7 | 0.00 | 0.00 | 0.00 | 31 | 1009.7 |
| 20260504203253 | 20 | 353 | 6.4 | 9.7 | 0.00 | 0.00 | 0.00 | 31 | 1009.5 |
| 20260504202752 | 20 | 358 | 6.4 | 6.4 | 0.00 | 0.00 | 0.00 | 31 | 1009.5 |
| 20260504202250 | 20 | 81 | 8.0 | 9.7 | 0.00 | 0.00 | 0.00 | 31 | 1009.4 |
| 20260504201747 | 20 | 354 | 4.8 | 4.8 | 0.00 | 0.00 | 0.00 | 31 | 1009.8 |
| 20260504201244 | 20 | 77 | 0.0 | 1.6 | 0.00 | 0.00 | 0.00 | 31 | 1009.7 |
| 20260504200742 | 20 | 59 | 9.7 | 14.5 | 0.00 | 0.00 | 0.00 | 30 | 1009.5 |
| 20260504200237 | 20 | 65 | 1.6 | 3.2 | 0.00 | 0.00 | 0.00 | 30 | 1009.7 |
| 20260504195734 | 20 | 280 | 4.8 | 6.4 | 0.00 | 0.00 | 0.00 | 30 | 1009.4 |
| 20260504195230 | 20 | 349 | 14.5 | 25.7 | 0.00 | 0.00 | 0.00 | 30 | 1009.3 |
| 20260504194728 | 20 | 26 | 14.5 | 20.9 | 0.00 | 0.00 | 0.00 | 29 | 1009.4 |
| 20260504194223 | 21 | 359 | 6.4 | 12.9 | 0.00 | 0.00 | 0.00 | 28 | 1009.3 |
| 20260504193720 | 21 | 219 | 1.6 | 3.2 | 0.00 | 0.00 | 0.00 | 27 | 1009.2 |
| 20260504193218 | 21 | 9 | 6.4 | 9.7 | 0.00 | 0.00 | 0.00 | 27 | 1009.3 |
| 20260504192716 | 22 | 63 | 14.5 | 22.5 | 0.00 | 0.00 | 0.00 | 25 | 1009.1 |
| 20260504192213 | 22 | 14 | 4.8 | 9.7 | 0.00 | 0.00 | 0.00 | 23 | 1008.9 |
| 20260504191712 | 22 | 14 | 6.4 | 6.4 | 0.00 | 0.00 | 0.00 | 25 | 1009.0 |
| 20260504191208 | 23 | 299 | 6.4 | 9.7 | 0.00 | 0.00 | 0.00 | 24 | 1008.9 |
| 20260504190703 | 23 | 20 | 4.8 | 6.4 | 0.00 | 0.00 | 0.00 | 24 | 1008.9 |
| 20260504190200 | 22 | 61 | 1.6 | 3.2 | 0.00 | 0.00 | 0.00 | 25 | 1009.1 |
| 20260504185657 | 22 | 61 | 9.7 | 11.3 | 0.00 | 0.00 | 0.00 | 24 | 1008.9 |
| 20260504185153 | 23 | 288 | 6.4 | 9.7 | 0.00 | 0.00 | 0.00 | 24 | 1008.7 |
| 20260504184650 | 24 | 70 | 4.8 | 6.4 | 0.00 | 0.00 | 0.00 | 24 | 1008.7 |
| 20260504184145 | 25 | 74 | 0.0 | 0.0 | 0.00 | 0.00 | 0.00 | 23 | 1008.7 |
| 20260504183642 | 25 | 61 | 1.6 | 1.6 | 0.00 | 0.00 | 0.00 | 23 | 1009.0 |
| 20260504183139 | 25 | 33 | 6.4 | 9.7 | 0.00 | 0.00 | 0.00 | 22 | 1009.2 |
| 20260504182637 | 25 | 41 | 0.0 | 1.6 | 0.00 | 0.00 | 0.00 | 24 | 1009.1 |
| 20260504182135 | 23 | 106 | 1.6 | 1.6 | 0.00 | 0.00 | 0.00 | 25 | 1009.0 |
| 20260504181632 | 23 | 220 | 4.8 | 6.4 | 0.00 | 0.00 | 0.00 | 25 | 1008.9 |
| 20260504181129 | 25 | 96 | 3.2 | 4.8 | 0.00 | 0.00 | 0.00 | 24 | 1008.9 |
| 20260504180628 | 25 | 39 | 1.6 | 1.6 | 0.00 | 0.00 | 0.00 | 24 | 1009.1 |
| 20260504180127 | 23 | 103 | 1.6 | 3.2 | 0.00 | 0.00 | 0.00 | 25 | 1008.7 |
| 20260504175624 | 23 | 131 | 3.2 | 4.8 | 0.00 | 0.00 | 0.00 | 25 | 1009.0 |
| 20260504175120 | 23 | 138 | 3.2 | 4.8 | 0.00 | 0.00 | 0.00 | 24 | 1009.2 |
| 20260504174618 | 24 | 83 | 3.2 | 4.8 | 0.00 | 0.00 | 0.00 | 24 | 1009.0 |
| 20260504174114 | 25 | 99 | 1.6 | 1.6 | 0.00 | 0.00 | 0.00 | 23 | 1009.2 |
| 20260504173611 | 25 | 128 | 0.0 | 1.6 | 0.00 | 0.00 | 0.00 | 24 | 1009.2 |
| 20260504173109 | 23 | 164 | 3.2 | 4.8 | 0.00 | 0.00 | 0.00 | 24 | 1009.4 |
| 20260504172605 | 23 | 153 | 1.6 | 3.2 | 0.00 | 0.00 | 0.00 | 23 | 1009.5 |
| 20260504172102 | 23 | 105 | 1.6 | 3.2 | 0.00 | 0.00 | 0.00 | 24 | 1009.4 |
| 20260504171558 | 23 | 66 | 1.6 | 1.6 | 0.00 | 0.00 | 0.00 | 25 | 1009.5 |
| 20260504171055 | 23 | 26 | 1.6 | 1.6 | 0.00 | 0.00 | 0.00 | 25 | 1009.5 |
| 20260504170551 | 22 | 159 | 6.4 | 6.4 | 0.00 | 0.00 | 0.00 | 24 | 1009.8 |
| 20260504150929 | 14 | 111 | 0.0 | 0.0 | 0.00 | 0.00 | 0.00 | 37 | 1010.5 |
| 20260504150426 | 13 | 103 | 0.0 | 0.0 | 0.00 | 0.00 | 0.00 | 38 | 1010.5 |
| 20260504140847 | 10 | 66 | 0.0 | 1.6 | 0.00 | 0.00 | 0.00 | 45 | 1010.7 |
| 20260504140343 | 10 | 153 | 1.6 | 1.6 | 0.00 | 0.00 | 0.00 | 46 | 1010.7 |
| 20260504130811 | 8 | 134 | 3.2 | 3.2 | 0.00 | 0.00 | 0.00 | 53 | 1010.7 |
| 20260504130307 | 7 | 132 | 1.6 | 1.6 | 0.00 | 0.00 | 0.00 | 54 | 1010.7 |
| 20260504120231 | 5 | 105 | 0.0 | 0.0 | 0.00 | 0.00 | 0.00 | 61 | 1010.7 |
| 20260504110658 | 6 | 108 | 0.0 | 0.0 | 0.00 | 0.00 | 0.00 | 60 | 1010.9 |
| 20260504110154 | 6 | 115 | 0.0 | 1.6 | 0.00 | 0.00 | 0.00 | 60 | 1010.8 |
| 20260504100119 | 7 | 91 | 0.0 | 0.0 | 0.00 | 0.00 | 0.00 | 59 | 1011.3 |
| 20260504081512 | 10 | 64 | 0.0 | 0.0 | 0.00 | 0.00 | 0.00 | 48 | 1012.0 |
| 20260504081007 | 10 | 78 | 0.0 | 0.0 | 0.00 | 0.00 | 0.00 | 48 | 1012.1 |
| 20260504080504 | 10 | 33 | 1.6 | 1.6 | 0.00 | 0.00 | 0.00 | 48 | 1012.0 |
| 20260504050317 | 14 | 37 | 1.6 | 1.6 | 0.00 | 0.00 | 0.00 | 39 | 1012.2 |
| 20260504045814 | 14 | 108 | 4.8 | 9.7 | 0.00 | 0.00 | 0.00 | 39 | 1012.0 |
| 20260504045309 | 14 | 61 | 3.2 | 4.8 | 0.00 | 0.00 | 0.00 | 39 | 1012.3 |
| 20260504044806 | 14 | 65 | 0.0 | 0.0 | 0.00 | 0.00 | 0.00 | 39 | 1012.2 |
| 20260504044304 | 15 | 81 | 1.6 | 1.6 | 0.00 | 0.00 | 0.00 | 38 | 1012.4 |
| 20260504043801 | 15 | 75 | 0.0 | 0.0 | 0.00 | 0.00 | 0.00 | 38 | 1012.5 |
| 20260504043258 | 15 | 94 | 1.6 | 1.6 | 0.00 | 0.00 | 0.00 | 37 | 1012.4 |
| 20260504042756 | 15 | 79 | 0.0 | 1.6 | 0.00 | 0.00 | 0.00 | 37 | 1012.5 |
| 20260504042251 | 15 | 46 | 3.2 | 4.8 | 0.00 | 0.00 | 0.00 | 37 | 1012.9 |
| 20260504041748 | 15 | 36 | 3.2 | 4.8 | 0.00 | 0.00 | 0.00 | 37 | 1012.8 |
| 20260504041244 | 15 | 60 | 0.0 | 1.6 | 0.00 | 0.00 | 0.00 | 36 | 1012.8 |
| 20260504040739 | 16 | 44 | 3.2 | 4.8 | 0.00 | 0.00 | 0.00 | 36 | 1012.9 |
| 20260504040237 | 16 | 56 | 3.2 | 3.2 | 0.00 | 0.00 | 0.00 | 35 | 1012.8 |
| 20260504035728 | 16 | 88 | 0.0 | 1.6 | 0.00 | 0.00 | 0.00 | 34 | 1012.7 |
| 20260504035225 | 17 | 51 | 0.0 | 0.0 | 0.00 | 0.00 | 0.00 | 33 | 1012.9 |
| 20260504034723 | 17 | 58 | 4.8 | 6.4 | 0.00 | 0.00 | 0.00 | 31 | 1012.4 |
| 20260504034220 | 17 | 73 | 1.6 | 1.6 | 0.00 | 0.00 | 0.00 | 30 | 1012.5 |
| 20260504033718 | 17 | 47 | 0.0 | 1.6 | 0.00 | 0.00 | 0.00 | 30 | 1012.9 |
| 20260504033214 | 16 | 58 | 0.0 | 1.6 | 0.00 | 0.00 | 0.00 | 32 | 1012.7 |
| 20260504032711 | 16 | 95 | 0.0 | 0.0 | 0.00 | 0.00 | 0.00 | 34 | 1012.2 |
| 20260504032203 | 15 | 95 | 0.0 | 0.0 | 0.00 | 0.00 | 0.00 | 34 | 1012.1 |
| 20260504031700 | 15 | 95 | 0.0 | 0.0 | 0.00 | 0.00 | 0.00 | 34 | 1012.1 |
| 20260504031156 | 15 | 95 | 0.0 | 0.0 | 0.00 | 0.00 | 0.00 | 33 | 1012.1 |
| 20260504030652 | 15 | 95 | 0.0 | 0.0 | 0.00 | 0.00 | 0.00 | 33 | 1012.1 |
| 20260504030150 | 16 | 95 | 0.0 | 0.0 | 0.00 | 0.00 | 0.00 | 33 | 1012.1 |
| 20260504025646 | 16 | 95 | 0.0 | 0.0 | 0.00 | 0.00 | 0.00 | 32 | 1012.0 |
| 20260504025143 | 17 | 95 | 0.0 | 0.0 | 0.00 | 0.00 | 0.00 | 31 | 1011.7 |
| 20260504024640 | 17 | 95 | 0.0 | 0.0 | 0.00 | 0.00 | 0.00 | 31 | 1012.0 |
| 20260504024137 | 17 | 95 | 0.0 | 0.0 | 0.00 | 0.00 | 0.00 | 30 | 1012.0 |
| 20260504023634 | 17 | 95 | 0.0 | 0.0 | 0.00 | 0.00 | 0.00 | 30 | 1011.9 |
| 20260504023130 | 17 | 95 | 0.0 | 0.0 | 0.00 | 0.00 | 0.00 | 29 | 1011.7 |